Weather History for Hyannis, MA

Change the Weather History Date:

Thursday, October 10, 2013

  Actual Average Record
Temperature  
Mean Temperature 58 °F -  
Max Temperature 68 °F 63 °F 83 °F (1949)
Min Temperature 50 °F 45 °F 26 °F (1963)
Degree Days  
Heating Degree Days 7    
Growing Degree Days 8 (Base 50)    
Moisture  
Dew Point 54 °F    
Average Humidity 83    
Maximum Humidity 93    
Minimum Humidity 66    
Precipitation  
Precipitation 0.00 in - - ()
Sea Level Pressure  
Sea Level Pressure 30.22 in    
Wind  
Wind Speed 6 mph (NE)    
Max Wind Speed 12 mph    
Max Gust Speed -    
Visibility 10 miles    
Events      
Averages and records for this station are not official NWS values.
T = Trace of Precipitation, MM = Missing Value Source: NWS Daily Summary

Daily Weather History Graph

Daily Weather History Graph

Search for Another Location

Airport:

Trip Planner

Search our weather history database for the weather conditions in past years. The results will help you decide how hot, cold, wet, or windy it might be!

Date:

Astronomy

Oct. 10, 2013 Rise Set
Actual Time 6:47 AM EDT 6:07 PM EDT
Civil Twilight 6:20 AM EDT 6:35 PM EDT
Nautical Twilight 5:47 AM EDT 7:07 PM EDT
Astronomical Twilight 5:15 AM EDT 7:39 PM EDT
Moon 12:39 PM EDT (10/10) 10:39 PM EDT (10/10)
Length of Visible Light 12h 15m
Length of Day
11h 19m
Waxing Crescent, 35% of the Moon is Illuminated
Oct 10
Waxing Crescent
Oct 11
First Quarter
Oct 18
Full
Oct 26
Last Quarter
Nov 3
New

Hourly Weather History & Observations

Time (EDT) Temp. Dew Point Humidity Pressure Visibility Wind Dir Wind Speed Gust Speed Precip Events Conditions
12:56 AM 50.0 °F 46.0 °F 86% 30.32 in 10.0 mi NE 4.6 mph - N/A   Clear
1:56 AM 51.1 °F 46.9 °F 86% 30.32 in 10.0 mi NE 4.6 mph - N/A   Partly Cloudy
2:56 AM 53.1 °F 48.0 °F 83% 30.30 in 10.0 mi NE 4.6 mph - N/A   Clear
3:56 AM 53.1 °F 48.9 °F 86% 30.29 in 10.0 mi NE 5.8 mph - N/A   Clear
4:56 AM 52.0 °F 48.0 °F 86% 30.28 in 10.0 mi NE 4.6 mph - N/A   Clear
5:56 AM 52.0 °F 48.9 °F 89% 30.29 in 10.0 mi NE 5.8 mph - N/A   Clear
6:56 AM 52.0 °F 48.9 °F 89% 30.28 in 10.0 mi NE 3.5 mph - N/A   Clear
7:56 AM 54.0 °F 51.1 °F 90% 30.28 in 10.0 mi NE 3.5 mph - N/A   Clear
8:56 AM 59.0 °F 54.0 °F 83% 30.27 in 10.0 mi East 5.8 mph - N/A   Clear
9:56 AM 62.1 °F 54.0 °F 75% 30.28 in 10.0 mi ENE 6.9 mph - N/A   Clear
10:56 AM 64.0 °F 54.0 °F 70% 30.27 in 10.0 mi East 8.1 mph - N/A   Mostly Cloudy
11:56 AM 66.9 °F 55.0 °F 66% 30.25 in 10.0 mi NE 10.4 mph - N/A   Clear
12:56 PM 66.9 °F 55.9 °F 68% 30.23 in 10.0 mi Variable 6.9 mph - N/A   Partly Cloudy
1:56 PM 66.9 °F 55.9 °F 68% 30.22 in 10.0 mi East 4.6 mph - N/A   Clear
2:56 PM 64.9 °F 55.9 °F 73% 30.21 in 10.0 mi East 6.9 mph - N/A   Partly Cloudy
3:56 PM 63.0 °F 55.9 °F 78% 30.19 in 10.0 mi ENE 9.2 mph - N/A   Clear
4:56 PM 62.1 °F 55.9 °F 80% 30.18 in 10.0 mi NE 9.2 mph - N/A   Clear
5:53 PM 60.8 °F 55.4 °F 82% 30.18 in 10.0 mi NE 9.2 mph - N/A   Mostly Cloudy
5:56 PM 60.1 °F 55.9 °F 86% 30.18 in 10.0 mi NE 8.1 mph - N/A   Mostly Cloudy
6:04 PM 60.8 °F 55.4 °F 82% 30.17 in 10.0 mi NE 6.9 mph - N/A   Scattered Clouds
6:56 PM 59.0 °F 55.9 °F 90% 30.19 in 10.0 mi NE 6.9 mph - N/A   Mostly Cloudy
7:42 PM 59.0 °F 55.4 °F 88% 30.16 in 10.0 mi NE 11.5 mph - N/A   Mostly Cloudy
7:54 PM 59.0 °F 55.4 °F 88% 30.16 in 10.0 mi NNE 6.9 mph - N/A   Mostly Cloudy
7:56 PM 59.0 °F 55.9 °F 90% 30.17 in 10.0 mi NNE 8.1 mph - N/A   Mostly Cloudy
8:46 PM 59.0 °F 55.4 °F 88% 30.16 in 10.0 mi NNE 6.9 mph - N/A   Mostly Cloudy
8:56 PM 59.0 °F 55.9 °F 90% 30.16 in 10.0 mi NE 8.1 mph - N/A   Mostly Cloudy
9:56 PM 59.0 °F 55.9 °F 90% 30.16 in 10.0 mi NNE 6.9 mph - N/A   Overcast
10:56 PM 59.0 °F 55.9 °F 90% 30.15 in 10.0 mi NNE 9.2 mph - N/A   Mostly Cloudy
11:56 PM 59.0 °F 57.0 °F 93% 30.13 in 10.0 mi NE 8.1 mph - N/A   Overcast